Location: Davayat
(45.9471°N, 3.1105°E)
Time: 13:51:51
(UTC+00:00)

Okean-O - Pass Details

Date: 01 December 2020
Orbit: 639 x 640 km, 98.2° (Epoch: 26 January)

Event Time Altitude Azimuth Distance (km) Brightness Sun altitude
Rises 17:57:12 0° 154° (SSE) 2,931 5.9 -19.0°
Reaches altitude 10° 17:59:25 10° 150° (SSE) 2,027 5.0 -19.4°
Maximum altitude 18:03:44 57° 72° (ENE) 757 2.6 -20.1°
Drops below altitude 10° 18:08:06 10° 354° (N) 2,044 5.2 -20.9°
Sets 18:10:20 0° 351° (N) 2,958 6.0 -21.3°
